Other Public Products
Issued by NWS Charleston, SC

Current Version | Previous Version | Text Only | Print | Product List | Glossary Off
Versions: 1 2 3 4 5 6 7 8 9 10 11 12 13 14 15 16 17 18 19 20 21 22 23 24 25 26 27 28 29 30 31 32 33 34 35 36 37 38 39 40 41 42 43 44 45 46 47 48 49 50

000
FPUS82 KCHS 151427
OPUCHS

TEST...KCHS/KSAV Gateway Observations...TEST
National Weather Service Charleston SC
900 AM EST FRI DEC 15 2017

NOTE: "fair" indicates few or no clouds below 12,000 feet with no
significant weather and/or obstructions to visibility.

SCZ050-WAZ558-NCZ071-TXZ119-213-PAZ071-DCZ001-FLZ074-172-MI076-
NYZ176-178-MAZ016-IL014-TNZ027-NJZ106-GAZ044-MD014-151500-

...Gateway Observations for Charleston International...

CITY           SKY/WX    TMP DP  RH WIND       PRES   REMARKS
Chas Airport   CLOUDY    49  41  74 W5        30.02R
Seattle        LGT RAIN  40  34  79 SE7       30.19S WCI  35
Charlotte      PTSUNNY   36  25  64 N8        29.98F WCI  30
Dallas DFW     PTCLDY    39  30  70 NW10      30.29R WCI  32
Dallas Love    PTCLDY    38  30  73 N6        30.31R WCI  33
Philladelphia  CLOUDY    26  10  50 SE6       30.12F WCI  19
Wash National  CLOUDY    30  12  47 E6        30.10F WCI  24
Baltimore      CLOUDY    28  12  51 SE7       30.09F WCI  21
Miami          CLOUDY    67  58  72 CALM      30.12R
Detroit        CLOUDY    21  11  65 S5        29.90F WCI  15
Newark         CLOUDY    23   9  55 W7        30.12S WCI  15
Laguardia      CLOUDY    25  10  53 CALM      30.12R
J F K          CLOUDY    24  11  57 E3        30.13S
Boston Logan   CLOUDY    20   9  62 SW6       30.09S WCI  12
Ft. Lauderdale PTSUNNY   66  59  78 W5        30.11R
Chicago O`Hare FLURRIES  26  17  68 W14       29.92R WCI  14
Chicago Midway FLURRIES  27  19  72 W12       29.93S WCI  17
Houston Bush   CLOUDY    48  33  56 N10       30.26R
Houston Hobby  CLOUDY    48  36  63 N12       30.25R
Nashville      CLOUDY    33  20  58 W9        30.16R WCI  25
Atlanta        PTSUNNY   37  29  72 NW10      30.04R WCI  30

$$

GAZ044-118-TXZ119-213-NCZ071-DCZ001-MDZ014-506-PAZ021-071-NJZ106-
NYZ176-178-MAZ106-OHZ011-021-055-MIZ076-KYZ091-ILZ014-INZ047-
MNZ060-ONZ431-151500-

...Gateway Observations for Savannah International...

CITY           SKY/WX    TMP DP  RH WIND       PRES   REMARKS
Savannah Arpt  CLOUDY    51  43  74 SW6       30.03S
Atlanta        PTSUNNY   37  29  72 NW10      30.04R WCI  30
Charlotte      PTSUNNY   36  25  64 N8        29.98F WCI  30
Dallas DFW     PTCLDY    39  30  70 NW10      30.29R WCI  32
Houston Bush   CLOUDY    48  33  56 N10       30.26R
Wash National  CLOUDY    30  12  47 E6        30.10F WCI  24
Wash Dulles    CLOUDY    28  14  55 SE6       30.08S WCI  22
Baltimore      CLOUDY    28  12  51 SE7       30.09F WCI  21
Philadelphia   CLOUDY    26  10  50 SE6       30.12F WCI  19
Newark         CLOUDY    23   9  55 W7        30.12S WCI  15
Laguardia      CLOUDY    25  10  53 CALM      30.12R
J F K          CLOUDY    24  11  57 E3        30.13S
Boston         CLOUDY    20   9  62 SW6       30.09S WCI  12
Pittsburg      CLOUDY    18  13  80 CALM      29.94F
Akron          CLOUDY    13   7  77 S7        29.95F WCI   3
Cleveland      CLOUDY    16   9  74 S7        29.98F WCI   6
Cincinnati     CLOUDY    22  19  89 SW7       30.01F FOG     WCI  13
Columbus       CLOUDY    20  19  93 SW5       30.01S WCI  14
Detroit        CLOUDY    21  11  65 S5        29.90F WCI  15
Chicago O`Hare FLURRIES  26  17  68 W14       29.92R WCI  14
Minneapolis    CLOUDY    23  20  88 NW5       29.89S WCI  17
Indianapolis   MOCLDY    27  17  66 SW10      30.00F WCI  17
Toronto Canada CLOUDY    19  10  68 SW10      29.90F WCI   8

$$




USA.gov is the U.S. government's official web portal to all federal, state and local government web resources and services.